Weather History for KMKS - December, 2013

Change the Weather History Date:

Thursday, December 26, 2013

  Actual Average (KCHS) Record (KCHS)
Temperature  
Mean Temperature 44 °F 49 °F  
Max Temperature 48 °F 59 °F 78 °F (1942)
Min Temperature 41 °F 38 °F 11 °F (1983)
Degree Days  
Heating Degree Days 20 16  
Month to date heating degree days 363  
Since 1 July heating degree days 655  
Cooling Degree Days 0 0  
Month to date cooling degree days 0  
Year to date cooling degree days 2297  
Moisture  
Dew Point 40 °F    
Average Humidity 85    
Maximum Humidity 100    
Minimum Humidity 70    
Precipitation  
Precipitation 0.01 in 0.11 in 2.04 in (1941)
Month to date precipitation 2.58  
Year to date precipitation 50.50  
Sea Level Pressure  
Sea Level Pressure 30.31 in    
Wind  
Wind Speed 4 mph (North)    
Max Wind Speed 9 mph    
Max Gust Speed -    
Visibility 9 miles    
Events Rain    
T = Trace of Precipitation, MM = Missing Value Source: NWS Daily Summary

Daily Weather History Graph

Daily Weather History Graph

Search for Another Location

Airport or City:

Trip Planner

Search our weather history database for the weather conditions in past years. The results will help you decide how hot, cold, wet, or windy it might be!

Date:

Astronomy

Dec. 26, 2013 Rise Set
Actual Time 7:21 AM EST 5:19 PM EST
Civil Twilight 6:54 AM EST 5:47 PM EST
Nautical Twilight 6:23 AM EST 6:18 PM EST
Astronomical Twilight 5:53 AM EST 6:48 PM EST
Moon 1:02 AM EST (12/26) 12:42 PM EST (12/26)
Length of Visible Light 10h 53m
Length of Day
9h 58m
Last Quarter, 38% of the Moon is Illuminated
Dec 26
Last Quarter
Jan 1
New
Jan 7
First Quarter
Jan 15
Full
Jan 24
Last Quarter

Hourly Weather History & Observations

Time (EST) Temp. Windchill Dew Point Humidity Pressure Visibility Wind Dir Wind Speed Gust Speed Precip Events Conditions
12:15 AM 41.0 °F 39.0 °F 32.0 °F 70% 30.35 in 10.0 mi North 3.5 mph - N/A   Scattered Clouds
12:35 AM 41.0 °F - 32.0 °F 70% 30.36 in 7.0 mi Calm Calm - N/A   Mostly Cloudy
12:55 AM 41.0 °F 38.0 °F 32.0 °F 70% 30.35 in 10.0 mi NNE 4.6 mph - N/A   Mostly Cloudy
1:15 AM 41.0 °F 39.0 °F 32.0 °F 70% 30.34 in 10.0 mi North 3.5 mph - N/A   Overcast
1:35 AM 41.0 °F 38.0 °F 32.0 °F 70% 30.33 in 7.0 mi NNE 4.6 mph - N/A   Overcast
1:55 AM 41.0 °F 36.4 °F 32.0 °F 70% 30.33 in 10.0 mi NNE 6.9 mph - N/A   Overcast
2:15 AM 41.0 °F 37.1 °F 32.0 °F 70% 30.32 in 10.0 mi North 5.8 mph - N/A   Overcast
2:35 AM 41.0 °F 35.8 °F 32.0 °F 70% 30.32 in 7.0 mi North 8.1 mph - N/A   Overcast
2:55 AM 41.0 °F 37.1 °F 33.8 °F 76% 30.33 in 10.0 mi North 5.8 mph - N/A   Overcast
3:15 AM 41.0 °F 37.1 °F 33.8 °F 76% 30.33 in 10.0 mi North 5.8 mph - N/A   Overcast
3:35 AM 41.0 °F 37.1 °F 35.6 °F 81% 30.32 in 10.0 mi North 5.8 mph - N/A Rain Light Rain
3:55 AM 41.0 °F 39.0 °F 35.6 °F 81% 30.32 in 10.0 mi North 3.5 mph - N/A   Overcast
4:15 AM 41.0 °F 36.4 °F 37.4 °F 87% 30.31 in 10.0 mi North 6.9 mph - N/A Rain Light Rain
4:35 AM 41.0 °F 35.2 °F 37.4 °F 87% 30.31 in 10.0 mi NNE 9.2 mph - N/A   Overcast
4:55 AM 41.0 °F 38.0 °F 37.4 °F 87% 30.31 in 10.0 mi North 4.6 mph - N/A   Overcast
5:15 AM 41.0 °F 38.0 °F 37.4 °F 87% 30.31 in 10.0 mi North 4.6 mph - N/A   Overcast
5:35 AM 41.0 °F 38.0 °F 37.4 °F 87% 30.30 in 10.0 mi North 4.6 mph - N/A   Overcast
5:55 AM 42.8 °F 39.3 °F 37.4 °F 81% 30.30 in 10.0 mi NE 5.8 mph - N/A   Overcast
6:15 AM 42.8 °F 39.3 °F 37.4 °F 81% 30.31 in 10.0 mi North 5.8 mph - N/A   Overcast
6:35 AM 42.8 °F 39.3 °F 37.4 °F 81% 30.32 in 10.0 mi North 5.8 mph - N/A   Overcast
6:55 AM 41.0 °F 37.1 °F 37.4 °F 87% 30.32 in 7.0 mi North 5.8 mph - 0.01 in Rain Light Rain
7:15 AM 42.8 °F 38.6 °F 37.4 °F 81% 30.32 in 10.0 mi NNE 6.9 mph - N/A   Overcast
7:35 AM 42.8 °F 37.5 °F 37.4 °F 81% 30.31 in 10.0 mi NNE 9.2 mph - N/A   Overcast
7:55 AM 41.0 °F 36.4 °F 35.6 °F 81% 30.33 in 10.0 mi NE 6.9 mph - N/A   Overcast
8:15 AM 41.0 °F 37.1 °F 37.4 °F 87% 30.31 in 7.0 mi NE 5.8 mph - N/A   Overcast
8:35 AM 41.0 °F 36.4 °F 37.4 °F 87% 30.31 in 10.0 mi NE 6.9 mph - N/A   Overcast
8:55 AM 42.8 °F 39.3 °F 37.4 °F 81% 30.32 in 10.0 mi NNE 5.8 mph - N/A   Overcast
9:15 AM 42.8 °F 40.1 °F 39.2 °F 87% 30.33 in 7.0 mi NNE 4.6 mph - N/A   Overcast
9:35 AM 44.6 °F 42.2 °F 39.2 °F 81% 30.33 in 7.0 mi NNE 4.6 mph - N/A   Overcast
9:55 AM 44.6 °F 42.2 °F 41.0 °F 87% 30.33 in 7.0 mi North 4.6 mph - N/A   Overcast
10:15 AM 44.6 °F 42.2 °F 41.0 °F 87% 30.33 in 10.0 mi NNE 4.6 mph - N/A   Overcast
10:35 AM 44.6 °F 41.4 °F 41.0 °F 87% 30.33 in 10.0 mi NNE 5.8 mph - N/A   Overcast
10:55 AM 46.4 °F 44.3 °F 42.8 °F 87% 30.33 in 7.0 mi North 4.6 mph - N/A   Overcast
11:15 AM 46.4 °F 42.9 °F 42.8 °F 87% 30.32 in 7.0 mi North 6.9 mph - N/A   Overcast
11:35 AM 46.4 °F 43.5 °F 42.8 °F 87% 30.32 in 7.0 mi North 5.8 mph - N/A   Overcast
11:55 AM 44.6 °F 41.4 °F 42.8 °F 93% 30.32 in 10.0 mi North 5.8 mph - N/A   Overcast
12:15 PM 46.4 °F 43.5 °F 42.8 °F 87% 30.31 in 7.0 mi North 5.8 mph - N/A   Overcast
12:35 PM 46.4 °F 43.5 °F 42.8 °F 87% 30.30 in 7.0 mi North 5.8 mph - N/A   Overcast
12:55 PM 46.4 °F 43.5 °F 42.8 °F 87% 30.30 in 7.0 mi NNW 5.8 mph - N/A   Overcast
1:15 PM 46.4 °F 42.4 °F 42.8 °F 87% 30.29 in 10.0 mi NNE 8.1 mph - N/A   Overcast
1:35 PM 46.4 °F 42.4 °F 42.8 °F 87% 30.28 in 10.0 mi North 8.1 mph - N/A   Overcast
1:55 PM 46.4 °F 44.3 °F 42.8 °F 87% 30.28 in 7.0 mi North 4.6 mph - N/A   Overcast
2:15 PM 48.2 °F - 42.8 °F 82% 30.27 in 5.0 mi North 5.8 mph - N/A   Overcast
2:35 PM 46.4 °F 43.5 °F 42.8 °F 87% 30.26 in 7.0 mi NNW 5.8 mph - N/A   Overcast
2:55 PM 46.4 °F 43.5 °F 42.8 °F 87% 30.26 in 7.0 mi North 5.8 mph - N/A   Overcast
3:15 PM 48.2 °F - 42.8 °F 82% 30.26 in 7.0 mi NNW 3.5 mph - N/A   Overcast
3:35 PM 48.2 °F - 42.8 °F 82% 30.26 in 10.0 mi North 4.6 mph - N/A   Overcast
3:55 PM 48.2 °F - 44.6 °F 87% 30.26 in 10.0 mi North 3.5 mph - N/A   Overcast
4:15 PM 48.2 °F - 44.6 °F 87% 30.26 in 10.0 mi North 4.6 mph - N/A   Overcast
4:35 PM 48.2 °F - 44.6 °F 87% 30.26 in 7.0 mi NNW 3.5 mph - N/A   Overcast
4:55 PM 48.2 °F - 44.6 °F 87% 30.27 in 7.0 mi NNW 3.5 mph - N/A   Overcast
5:15 PM 48.2 °F - 44.6 °F 87% 30.27 in 7.0 mi Calm Calm - N/A   Overcast
5:35 PM 48.2 °F - 44.6 °F 87% 30.27 in 10.0 mi Calm Calm - N/A   Overcast
5:55 PM 48.2 °F - 44.6 °F 87% 30.28 in 10.0 mi Calm Calm - N/A   Overcast
6:15 PM 48.2 °F - 44.6 °F 87% 30.28 in 10.0 mi Calm Calm - N/A   Mostly Cloudy
6:35 PM 46.4 °F - 44.6 °F 93% 30.29 in 7.0 mi Calm Calm - N/A   Mostly Cloudy
6:55 PM 46.4 °F - 44.6 °F 93% 30.29 in 10.0 mi Calm Calm - N/A   Mostly Cloudy
7:15 PM 46.4 °F 45.2 °F 44.6 °F 93% 30.29 in 10.0 mi North 3.5 mph - N/A   Overcast
7:35 PM 46.4 °F - 42.8 °F 87% 30.30 in 10.0 mi Calm Calm - N/A   Mostly Cloudy
7:55 PM 46.4 °F - 42.8 °F 87% 30.31 in 7.0 mi Calm Calm - N/A   Scattered Clouds
8:15 PM 44.6 °F - 42.8 °F 93% 30.31 in 10.0 mi Calm Calm - N/A   Scattered Clouds
8:35 PM 44.6 °F - 42.8 °F 93% 30.31 in 10.0 mi Calm Calm - N/A   Clear
8:55 PM 42.8 °F - 42.8 °F 100% 30.31 in 7.0 mi Calm Calm - N/A   Scattered Clouds
9:15 PM 42.8 °F - 42.8 °F 100% 30.31 in 10.0 mi Calm Calm - N/A   Overcast
9:35 PM 44.6 °F - 42.8 °F 93% 30.32 in 10.0 mi Calm Calm - N/A   Scattered Clouds
9:55 PM 44.6 °F - 42.8 °F 93% 30.32 in 7.0 mi Calm Calm - N/A   Clear
10:15 PM 44.6 °F - 42.8 °F 93% 30.33 in 10.0 mi Calm Calm - N/A   Mostly Cloudy
10:35 PM 44.6 °F - 42.8 °F 93% 30.32 in 10.0 mi Calm Calm - N/A   Mostly Cloudy
10:55 PM 44.6 °F 43.1 °F 42.8 °F 93% 30.32 in 10.0 mi NNE 3.5 mph - N/A   Scattered Clouds
11:15 PM 46.4 °F 45.2 °F 41.0 °F 81% 30.33 in 10.0 mi NNE 3.5 mph - N/A   Scattered Clouds
11:35 PM 46.4 °F 45.2 °F 41.0 °F 81% 30.33 in 10.0 mi NNE 3.5 mph - N/A   Scattered Clouds
11:55 PM 46.4 °F - 41.0 °F 81% 30.33 in 10.0 mi Calm Calm - N/A   Mostly Cloudy